SAS1022 EKCH-ENGM

Flight info

Callsign SAS1022
Flight time N/A
Altitude 36000
Route VEDAR L997 LASLI DCT SABAK L997 REGMA DCT LUNIP
Aircraft A319/M-SDE3FGHIRWY/LB1

Departure

Time 2026-04-26 21:08
Airport Copenhagen Kastrup Airport (EKCH)

Arrival

Time N/A
Airport Oslo-Gardermoen International Airport (ENGM)
Time Latitude Longitude Altitude Speed Heading
2026-04-26 20:53 55.62712 12.64468 28 ft 0 kts 102°
2026-04-26 20:58 55.62715 12.64448 26 ft 3 kts 106°
2026-04-26 20:58 55.62721 12.64414 26 ft 3 kts 110°
2026-04-26 20:58 55.62727 12.64381 25 ft 3 kts 92°
2026-04-26 20:58 55.62725 12.64355 24 ft 2 kts 64°
2026-04-26 20:59 55.62729 12.64344 24 ft 3 kts 357°
2026-04-26 20:59 55.62711 12.64343 28 ft 3 kts 22°
2026-04-26 20:59 55.62693 12.64330 26 ft 3 kts 20°
2026-04-26 20:59 55.62675 12.64318 27 ft 3 kts 21°
2026-04-26 21:00 55.62656 12.64305 24 ft 3 kts 20°
2026-04-26 21:00 55.62638 12.64291 28 ft 3 kts 28°
2026-04-26 21:00 55.62622 12.64275 26 ft 3 kts 32°
2026-04-26 21:00 55.62607 12.64255 24 ft 3 kts 58°
2026-04-26 21:01 55.62601 12.64230 28 ft 3 kts 82°
2026-04-26 21:01 55.62604 12.64199 27 ft 3 kts 108°
2026-04-26 21:01 55.62606 12.64183 25 ft 1 kts 118°
2026-04-26 21:03 55.62578 12.64204 24 ft 8 kts 169°
2026-04-26 21:03 55.62506 12.64256 24 ft 15 kts 130°
2026-04-26 21:03 55.62433 12.64434 24 ft 20 kts 126°
2026-04-26 21:03 55.62346 12.64658 24 ft 24 kts 124°
2026-04-26 21:04 55.62251 12.64909 26 ft 25 kts 123°
2026-04-26 21:04 55.62180 12.65093 24 ft 14 kts 136°
2026-04-26 21:04 55.62097 12.65052 27 ft 16 kts 214°
2026-04-26 21:04 55.61973 12.64908 24 ft 26 kts 213°
2026-04-26 21:05 55.61810 12.64720 24 ft 30 kts 212°
2026-04-26 21:05 55.61623 12.64509 24 ft 34 kts 213°
2026-04-26 21:05 55.61446 12.64304 26 ft 31 kts 213°
2026-04-26 21:05 55.61251 12.64079 24 ft 35 kts 213°
2026-04-26 21:06 55.61092 12.63895 24 ft 28 kts 213°
2026-04-26 21:06 55.60927 12.63705 25 ft 21 kts 213°
2026-04-26 21:06 55.60856 12.63624 24 ft 11 kts 213°
2026-04-26 21:06 55.60796 12.63575 24 ft 8 kts 154°
2026-04-26 21:07 55.60754 12.63663 24 ft 11 kts 129°
2026-04-26 21:07 55.60695 12.63792 27 ft 16 kts 129°
2026-04-26 21:07 55.60696 12.63896 27 ft 10 kts 41°
2026-04-26 21:07 55.60871 12.64168 25 ft 67 kts 41°
2026-04-26 21:08 55.61388 12.64964 25 ft 127 kts 41°
2026-04-26 21:08 55.62146 12.66162 278 ft 151 kts 44°
2026-04-26 21:08 55.62933 12.67386 865 ft 151 kts 38°
2026-04-26 21:08 55.63727 12.68618 1350 ft 155 kts 36°
2026-04-26 21:09 55.64555 12.69904 1772 ft 161 kts 37°
2026-04-26 21:09 55.65463 12.71131 2184 ft 169 kts 26°
2026-04-26 21:09 55.66652 12.71247 2444 ft 186 kts 336°
2026-04-26 21:09 55.67880 12.70210 2724 ft 212 kts 338°
2026-04-26 21:10 55.69411 12.69595 3181 ft 238 kts 345°
2026-04-26 21:10 55.71020 12.68732 3877 ft 251 kts 338°
2026-04-26 21:10 55.72673 12.67619 4924 ft 254 kts 336°
2026-04-26 21:10 55.74321 12.66457 5948 ft 258 kts 336°
2026-04-26 21:11 55.75999 12.65259 6978 ft 259 kts 336°
2026-04-26 21:11 55.77678 12.64067 8009 ft 259 kts 337°
2026-04-26 21:11 55.79362 12.62903 9055 ft 259 kts 337°
2026-04-26 21:11 55.81025 12.61771 10066 ft 260 kts 338°
2026-04-26 21:12 55.82747 12.60607 10720 ft 273 kts 337°
2026-04-26 21:12 55.84599 12.59360 11000 ft 296 kts 338°
2026-04-26 21:12 55.86597 12.58019 11352 ft 314 kts 338°
2026-04-26 21:12 55.88662 12.56635 12038 ft 319 kts 337°
2026-04-26 21:13 55.90748 12.55232 12786 ft 322 kts 337°
2026-04-26 21:13 55.92875 12.53924 13535 ft 327 kts 343°
2026-04-26 21:13 55.95124 12.53112 14273 ft 330 kts 346°
2026-04-26 21:13 55.97395 12.52330 14908 ft 334 kts 346°
2026-04-26 21:14 55.99694 12.51548 15555 ft 337 kts 346°
2026-04-26 21:14 56.02011 12.50760 16193 ft 341 kts 346°
2026-04-26 21:14 56.04320 12.49969 16831 ft 344 kts 346°
2026-04-26 21:14 56.06682 12.49154 17472 ft 347 kts 345°
2026-04-26 21:15 56.09063 12.48322 18129 ft 351 kts 345°
2026-04-26 21:15 56.11469 12.47474 18751 ft 354 kts 345°
2026-04-26 21:15 56.13908 12.46621 19323 ft 357 kts 345°
2026-04-26 21:15 56.16359 12.45769 19907 ft 360 kts 345°
2026-04-26 21:16 56.18831 12.44914 20497 ft 362 kts 345°
2026-04-26 21:16 56.21317 12.44054 21070 ft 365 kts 345°
2026-04-26 21:16 56.23800 12.43192 21655 ft 367 kts 345°
2026-04-26 21:16 56.26316 12.42317 22188 ft 370 kts 345°
2026-04-26 21:17 56.28857 12.41431 22703 ft 373 kts 345°
2026-04-26 21:17 56.31413 12.40534 23211 ft 375 kts 345°
2026-04-26 21:17 56.33982 12.39633 23710 ft 378 kts 345°
2026-04-26 21:17 56.36576 12.38722 24142 ft 380 kts 345°
2026-04-26 21:18 56.39185 12.37806 24550 ft 383 kts 345°
2026-04-26 21:18 56.41782 12.36894 24949 ft 385 kts 345°
2026-04-26 21:18 56.44427 12.35960 25351 ft 388 kts 345°
2026-04-26 21:18 56.47083 12.35021 25753 ft 390 kts 345°
2026-04-26 21:19 56.49757 12.34077 26183 ft 392 kts 345°
2026-04-26 21:19 56.52450 12.33124 26576 ft 395 kts 345°
2026-04-26 21:19 56.55156 12.32167 26965 ft 398 kts 345°
2026-04-26 21:19 56.57877 12.31203 27352 ft 400 kts 345°
2026-04-26 21:20 56.60621 12.30226 27729 ft 402 kts 345°
2026-04-26 21:20 56.63376 12.29245 28094 ft 405 kts 345°
2026-04-26 21:20 56.66147 12.28256 28438 ft 407 kts 345°
2026-04-26 21:20 56.68943 12.27262 28769 ft 410 kts 345°
2026-04-26 21:21 56.71757 12.26257 29110 ft 413 kts 345°
2026-04-26 21:21 56.74581 12.25240 29453 ft 415 kts 345°
2026-04-26 21:21 56.77387 12.24229 29784 ft 417 kts 345°
2026-04-26 21:21 56.80243 12.23199 30127 ft 420 kts 346°
2026-04-26 21:22 56.83126 12.22160 30422 ft 422 kts 346°
2026-04-26 21:22 56.86015 12.21118 30794 ft 422 kts 346°
2026-04-26 21:22 56.88895 12.20078 31194 ft 421 kts 346°
2026-04-26 21:23 56.94629 12.18015 31989 ft 419 kts 345°
2026-04-26 21:23 56.97456 12.16990 32387 ft 418 kts 345°
2026-04-26 21:23 57.00307 12.15953 32796 ft 417 kts 345°
2026-04-26 21:23 57.03148 12.14922 33207 ft 416 kts 345°
2026-04-26 21:24 57.05997 12.13888 33614 ft 415 kts 345°
2026-04-26 21:24 57.08827 12.12854 34033 ft 415 kts 345°
2026-04-26 21:24 57.11652 12.11816 34402 ft 414 kts 345°
2026-04-26 21:24 57.14477 12.10775 34741 ft 414 kts 345°
2026-04-26 21:25 57.17302 12.09730 35068 ft 414 kts 345°
2026-04-26 21:25 57.20127 12.08686 35393 ft 414 kts 345°
2026-04-26 21:25 57.22951 12.07645 35710 ft 414 kts 345°
2026-04-26 21:25 57.25770 12.06608 36016 ft 414 kts 345°
2026-04-26 21:26 57.28600 12.05564 36232 ft 414 kts 345°
2026-04-26 21:26 57.31416 12.04518 36280 ft 412 kts 345°
2026-04-26 21:26 57.36988 12.02440 36288 ft 411 kts 345°
2026-04-26 21:27 57.42608 12.00361 36277 ft 412 kts 345°
2026-04-26 21:27 57.48233 11.98283 36276 ft 412 kts 345°
2026-04-26 21:28 57.53866 11.96183 36280 ft 412 kts 345°
2026-04-26 21:28 57.59495 11.94059 36280 ft 412 kts 345°
2026-04-26 21:29 57.65119 11.91938 36301 ft 412 kts 345°
2026-04-26 21:29 57.70709 11.89820 36288 ft 412 kts 345°
2026-04-26 21:30 57.76331 11.87689 36275 ft 412 kts 345°
2026-04-26 21:30 57.81955 11.85558 36271 ft 412 kts 345°
2026-04-26 21:31 57.87589 11.83415 36273 ft 412 kts 345°
2026-04-26 21:31 57.93218 11.81251 36295 ft 413 kts 346°
2026-04-26 21:32 57.98853 11.79076 36275 ft 413 kts 346°
2026-04-26 21:32 58.04462 11.76924 36272 ft 414 kts 346°
2026-04-26 21:33 58.10111 11.74740 36273 ft 414 kts 346°
2026-04-26 21:33 58.15766 11.72552 36270 ft 415 kts 346°
2026-04-26 21:34 58.21433 11.70359 36268 ft 415 kts 346°
2026-04-26 21:34 58.27096 11.68157 36268 ft 415 kts 345°
2026-04-26 21:35 58.32714 11.65945 36268 ft 415 kts 345°
2026-04-26 21:35 58.38379 11.63712 36270 ft 415 kts 345°
2026-04-26 21:36 58.43081 11.61864 36274 ft 415 kts 346°
2026-04-26 21:36 58.49694 11.59264 36271 ft 415 kts 345°
2026-04-26 21:37 58.55358 11.57014 36273 ft 416 kts 346°
2026-04-26 21:37 58.61039 11.54751 36259 ft 417 kts 346°
2026-04-26 21:38 58.66703 11.52494 36257 ft 418 kts 346°
2026-04-26 21:38 58.72404 11.50218 36258 ft 419 kts 346°
2026-04-26 21:39 58.78123 11.47921 36260 ft 419 kts 346°
2026-04-26 21:39 58.83844 11.45619 36274 ft 420 kts 346°
2026-04-26 21:40 58.89538 11.43319 36258 ft 420 kts 346°
2026-04-26 21:40 58.95275 11.40986 36259 ft 421 kts 346°
2026-04-26 21:41 59.01013 11.38625 36263 ft 421 kts 346°
2026-04-26 21:41 59.06752 11.36267 36265 ft 422 kts 346°
2026-04-26 21:42 59.12456 11.33938 36286 ft 422 kts 346°
2026-04-26 21:42 59.18205 11.31584 36276 ft 421 kts 346°
2026-04-26 21:43 59.23955 11.29284 36277 ft 422 kts 347°
2026-04-26 21:43 59.29717 11.27070 36274 ft 422 kts 347°
2026-04-26 21:44 59.34509 11.25235 36274 ft 421 kts 347°
2026-04-26 21:44 59.40260 11.22989 36274 ft 421 kts 346°
2026-04-26 21:45 59.46007 11.20714 36293 ft 421 kts 347°
2026-04-26 21:45 59.51755 11.18440 36280 ft 420 kts 347°
2026-04-26 21:46 59.57450 11.16194 36279 ft 420 kts 347°
2026-04-26 21:46 59.63181 11.13925 36259 ft 420 kts 347°
2026-04-26 21:47 59.68925 11.11633 36255 ft 421 kts 347°
2026-04-26 21:47 59.74633 11.09347 36269 ft 421 kts 346°
2026-04-26 21:48 59.80383 11.07038 36266 ft 420 kts 346°
2026-04-26 21:48 59.86124 11.04723 36268 ft 420 kts 346°
2026-04-26 21:49 59.91824 11.02425 36253 ft 410 kts 346°
2026-04-26 21:49 59.94577 11.01314 36258 ft 397 kts 346°
2026-04-26 21:49 59.97248 11.00280 36261 ft 385 kts 351°
2026-04-26 21:50 59.99890 11.00327 36267 ft 376 kts
2026-04-26 21:50 60.02405 11.01244 36270 ft 369 kts 10°
2026-04-26 21:50 60.07288 11.04294 36271 ft 367 kts 14°
2026-04-26 21:51 60.12106 11.07547 36274 ft 366 kts 13°
2026-04-26 21:51 60.16976 11.10510 36274 ft 365 kts 12°
2026-04-26 21:52 60.21825 11.13473 36270 ft 369 kts 21°
2026-04-26 21:52 60.24006 11.16318 36276 ft 377 kts 37°
2026-04-26 21:52 60.25808 11.20145 36276 ft 384 kts 47°
2026-04-26 21:53 60.28815 11.29149 36259 ft 389 kts 53°
2026-04-26 21:53 60.31737 11.38323 36261 ft 387 kts 50°
2026-04-26 21:54 60.34866 11.47128 36259 ft 385 kts 47°
2026-04-26 21:54 60.38083 11.55718 36265 ft 382 kts 47°
2026-04-26 21:55 60.40554 11.65252 36266 ft 400 kts 79°
2026-04-26 21:55 60.40355 11.70918 36269 ft 413 kts 104°
2026-04-26 21:55 60.39049 11.76121 36265 ft 420 kts 129°
2026-04-26 21:56 60.36840 11.79950 36273 ft 421 kts 154°
2026-04-26 21:56 60.34088 11.81779 36262 ft 416 kts 179°
2026-04-26 21:56 60.31289 11.81349 36262 ft 404 kts 203°
2026-04-26 21:56 60.28858 11.78796 36261 ft 388 kts 228°
2026-04-26 21:57 60.25368 11.70685 36261 ft 384 kts 237°
2026-04-26 21:57 60.21969 11.62346 36256 ft 384 kts 236°
2026-04-26 21:58 60.18580 11.54033 36253 ft 384 kts 236°
2026-04-26 21:58 60.15195 11.45733 36253 ft 384 kts 236°
2026-04-26 21:59 60.11808 11.37434 36227 ft 384 kts 236°
2026-04-26 21:59 60.08021 11.29968 36249 ft 395 kts 213°
2026-04-26 22:00 60.03188 11.24629 36267 ft 395 kts 216°
2026-04-26 22:00 59.98535 11.18788 36244 ft 395 kts 217°
2026-04-26 22:01 59.93878 11.12979 36257 ft 395 kts 216°
2026-04-26 22:01 59.89184 11.07258 36256 ft 395 kts 216°
2026-04-26 22:02 59.84528 11.01570 36253 ft 395 kts 216°
2026-04-26 22:02 59.79835 10.95851 36254 ft 395 kts 216°